SCP
0 0 0 0 0 0 0 0 0 0 0 0 0 0 0 0 0 0 0 0 0 0 0 0 0 0 0 0 0 0 0 0 0 0 0 0 0 0 0 0 0 0 0 0 0 0 0 0 0
0 0 0 0 0 0 0 0 0 0 0 0 0 0 0 0 0 0 0 0 0 0 0 0 0 0 0 0 0 0 0 0 0 0 0 0 0 0 0 0 0 0 0 0 0 0 0 0 0
0 0 0 0 0 0 0 0 0 0 0 0 0 0 0 0 0 0 0 0 0 0 0 0 0 0 0 0 0 0 0 0 0 0 0 0 0 0 0 0 0 0 0 0 0 0 0 0 0
0 0 0 0 0 0 0 0 0 0 0 0 0 0 0 0 0 0 0 0 0 0 0 0 0 0 0 0 0 0 0 0 0 0 0 0 0 0 0 0 0 0 0 0 0 0 0 0 0
0 0 0 0 0 0 0 0 0 0 0 0 0 0 0 0 0 0 0 0 0 0 0 0 0 0 0 0 0 0 0 0 0 0 0 0 0 0 0 0 0 0 0 0 0 0 0 0 0
0 0 0 0 0 0 0 0 0 0 0 0 0 0 0 0 0 0 0 0 0 0 0 0 0 0 0 0 0 0 0 0 0 0 0 0 0 0 0 0 0 0 0 0 0 0 0 0 0
0 0 0 0 0 0 0 0 0 0 0 0 0 0 0 0 0 0 0 0 0 0 0 0 0 0 0 0 0 0 0 0 0 0 0 0 0 0 0 0 0 0 0 0 0 0 0 0 0
0 0 0 0 0 0 0 0 0 0 0 0 0 0 0 0 0 0 0 0 0 0 0 0 0 0 0 0 0 0 0 0 0 0 0 0 0 0 0 0 0 0 0 0 0 0 0 0 0
0 0 0 0 0 0 0 0 0 0 0 0 0 0 0 0 0 0 0 0 0 0 0 0 0 0 0 0 0 0 0 0 0 0 0 0 0 0 0 0 0 0 0 0 0 0 0 0 0
0 0 0 0 0 0 0 0 0 0 0 0 0 0 0 0 0 0 0 0 0 0 0 0 0 0 0 0 0 0 0 0 0 0 0 0 0 0 0 0 0 0 0 0 0 0 0 0 0
0 0 0 0 0 0 0 0 0 0 0 0 0 0 0 0 0 0 0 0 0 0 0 0 0 0 0 0 0 0 0 0 0 0 0 0 0 0 0 0 0 0 0 0 0 0 0 0 0
0 0 0 0 0 0 0 0 0 0 0 0 0 0 0 0 0 0 0 0 0 0 0 0 0 0 0 0 0 0 0 0 0 0 0 0 0 0 0 0 0 0 0 0 0 0 0 0 0
0 0 0 0 0 0 0 0 0 0 0 0 0 0 0 0 0 0 0 1 1 1 1 1 1 1 1 1 1 0 0 0 0 0 0 0 0 0 0 0 0 0 0 0 0 0 0 0 0
0 0 0 0 0 0 0 0 0 0 0 0 0 0 0 0 0 0 1 1 1 1 1 1 1 1 1 1 1 1 1 1 1 0 0 0 0 0 0 0 0 0 0 0 0 0 0 0 0
0 0 0 0 0 0 0 0 0 0 0 0 0 0 0 0 0 0 1 1 1 1 1 1 1 1 1 1 1 1 1 1 1 1 1 0 0 0 0 0 0 0 0 0 0 0 0 0 0
0 0 0 0 0 0 0 0 0 0 0 0 0 0 0 0 0 1 1 1 1 1 1 1 1 1 1 1 1 1 1 1 1 1 1 1 1 0 0 0 0 0 0 0 0 0 0 0 0
0 0 0 0 0 0 0 0 0 0 0 0 0 0 0 1 1 1 1 1 1 2 2 1 1 1 1 1 1 1 1 1 1 1 1 1 1 1 1 0 0 0 0 0 0 0 0 0 0
0 0 0 0 0 0 0 0 0 0 0 0 0 0 0 1 1 1 1 1 2 2 2 2 1 1 1 1 1 1 1 1 1 1 1 1 1 1 1 1 0 0 0 0 0 0 0 0 0
0 0 0 0 0 0 0 0 0 0 0 0 0 0 1 1 1 1 1 1 2 2 2 2 1 1 1 1 1 1 1 1 1 1 1 1 1 1 1 1 1 0 1 0 0 0 0 0 0
0 0 0 0 0 0 0 0 0 0 0 0 0 0 1 1 1 1 1 1 1 2 2 2 1 1 1 1 1 1 1 1 1 1 1 1 1 1 1 1 1 1 1 1 1 0 0 0 0
0 0 0 0 0 0 0 0 0 0 0 0 0 0 1 1 1 1 1 1 1 2 2 2 2 2 2 1 1 1 1 1 1 1 1 1 1 1 1 1 1 1 1 1 0 0 0 0 0
0 0 0 0 0 0 0 0 0 0 0 0 0 0 1 1 1 1 1 1 1 1 2 2 2 2 2 2 2 1 1 1 1 1 1 1 1 1 1 1 1 1 1 1 0 0 0 0 0
0 0 0 0 0 0 0 0 0 0 0 0 0 0 0 1 1 1 1 1 1 1 1 2 2 2 2 2 2 2 2 1 1 1 2 1 1 1 1 1 1 1 1 1 0 0 0 0 0
0 0 0 0 0 0 0 0 0 0 0 0 0 1 1 1 1 1 1 1 1 1 1 2 2 2 2 2 2 2 2 2 2 2 2 1 1 1 1 1 1 1 1 1 1 0 0 0 0
0 0 0 0 0 0 0 0 0 0 0 0 1 1 1 1 1 1 1 1 1 1 1 2 2 2 2 2 2 2 2 2 2 2 1 1 1 1 1 1 1 1 1 1 1 0 0 0 0
0 0 0 0 0 0 0 0 0 0 0 0 0 1 1 1 1 1 1 1 1 1 1 2 2 2 2 2 2 2 2 2 2 1 1 1 1 1 1 1 1 1 1 1 0 0 0 0 0
0 0 0 0 0 0 0 0 0 0 0 0 0 0 1 1 1 1 1 1 1 1 2 2 2 3 2 2 2 2 2 2 1 1 1 1 1 1 1 1 1 1 1 0 0 0 0 0 0
0 0 0 0 0 0 0 0 0 0 0 0 0 0 0 0 1 1 1 1 1 1 2 2 2 3 2 2 2 2 2 1 1 1 1 1 1 1 1 1 1 0 0 0 0 0 0 0 0
0 0 0 0 0 0 0 0 0 0 0 0 0 0 0 0 1 1 1 1 1 1 1 2 2 2 2 2 2 2 1 1 1 1 1 1 1 1 1 0 0 0 0 0 0 0 0 0 0
0 0 0 0 0 0 0 0 0 0 0 0 0 0 0 0 1 1 1 1 1 1 1 2 2 2 2 2 2 2 1 1 1 1 1 1 1 1 1 0 0 0 0 0 0 0 0 0 0
Wind_Speed
8 10 10 7 6 3 3 7 11 13 12 11 11 11 16 16 12 10 10 12 16 15 14 13 11 10 9 8 8 7 7 7 7 7 8 8 7 8 8 8 8 8 8 8 8 7 7 6 6
9 12 10 7 4 1 4 8 13 12 10 9 10 13 15 16 14 12 11 11 15 15 13 12 11 10 9 8 8 7 7 7 7 7 7 7 7 7 7 8 8 8 8 8 8 7 7 6 6
11 14 8 5 2 1 5 9 12 10 8 8 11 13 12 11 13 11 11 12 14 14 13 12 11 10 9 8 8 7 7 7 7 6 6 7 7 7 7 7 7 7 7 7 7 6 6 6 5
9 7 7 3 2 3 6 9 8 8 8 8 9 11 13 11 11 13 13 12 13 14 14 13 11 10 9 8 7 7 7 7 6 6 5 6 6 6 6 6 6 7 7 6 6 6 5 5 4
9 8 7 3 2 5 7 8 7 8 9 10 11 13 13 12 14 14 12 11 12 13 13 13 11 10 9 8 7 7 6 6 5 5 5 4 4 4 5 5 5 5 5 5 5 6 5 5 4
8 7 6 3 2 4 6 6 6 7 8 9 11 14 11 12 12 12 11 10 11 13 13 12 12 11 9 9 8 7 6 5 4 4 3 3 3 3 3 4 4 4 3 4 4 4 4 4 4
10 8 7 5 1 4 5 5 5 5 7 7 8 12 11 11 11 11 10 10 11 12 12 11 10 9 9 9 8 7 6 4 3 2 1 2 2 2 3 3 3 2 2 2 2 2 2 2 2
9 7 9 5 3 4 5 4 5 5 7 5 6 8 11 12 11 11 10 10 10 10 11 10 10 8 8 9 8 8 6 5 4 3 2 2 3 4 4 4 3 2 1 0 0 0 1 2 2
11 8 7 5 1 4 6 5 5 5 5 6 9 12 15 14 13 11 10 9 8 8 8 9 8 7 6 8 8 8 7 5 4 3 3 3 2 3 4 4 5 3 2 2 3 2 3 3 3
7 6 6 2 2 3 3 3 3 4 5 7 12 15 16 13 12 11 10 9 8 7 7 7 7 7 5 5 6 4 4 4 3 2 2 2 1 0 2 5 5 5 4 3 4 3 3 3 2
8 7 6 1 2 1 1 2 2 2 3 6 11 15 14 12 11 10 9 9 9 7 5 6 6 5 4 4 4 2 2 3 2 2 1 1 1 1 1 2 3 3 3 2 2 2 1 2 1
9 7 7 3 0 1 2 0 0 1 4 5 10 13 12 11 10 9 9 9 8 7 6 6 6 4 3 3 2 2 1 2 1 2 1 1 1 0 0 1 1 1 1 1 0 1 0 1 1
8 7 7 5 3 2 2 1 2 1 4 8 10 10 11 11 9 8 8 9 9 7 6 6 6 5 3 2 1 2 1 2 2 3 2 1 1 0 1 1 1 1 0 0 0 1 1 2 2
7 8 8 6 5 4 5 4 5 4 5 8 11 10 9 7 8 9 8 8 8 7 6 6 6 6 4 2 1 1 1 1 2 3 3 1 1 1 1 1 1 1 1 1 1 1 1 1 1
9 10 9 7 7 7 6 7 8 6 7 8 9 9 9 7 7 8 8 7 7 7 6 5 6 7 4 2 1 1 1 1 2 2 3 1 1 1 1 1 1 1 1 1 1 2 1 1 1
11 12 10 8 9 9 8 7 6 6 7 9 9 8 8 7 7 6 8 7 7 7 6 5 4 6 5 3 1 1 1 2 1 2 2 2 1 1 1 1 1 1 1 1 1 1 1 1 1
13 12 10 8 9 9 9 6 7 7 6 7 8 8 9 9 8 6 8 8 7 7 6 5 4 5 5 3 2 1 1 1 1 2 2 1 2 1 1 1 1 2 2 2 2 2 1 1 1
10 10 9 8 8 8 8 6 6 7 7 7 8 8 8 8 7 7 8 9 7 7 6 5 4 4 4 3 2 1 1 1 1 1 1 2 1 1 1 0 1 2 2 2 2 2 1 1 1
11 10 8 7 7 7 8 8 8 8 7 7 7 7 8 8 8 7 8 9 9 7 7 6 4 4 3 3 2 2 1 1 1 1 2 2 1 1 1 1 1 1 1 2 2 2 2 1 1
13 12 10 5 5 7 7 7 7 8 8 7 6 7 8 8 8 8 9 9 9 8 7 6 5 4 3 3 2 2 2 2 2 1 2 2 1 1 1 1 1 1 1 1 2 2 2 2 1
14 12 9 7 7 8 7 9 9 6 5 6 6 7 8 9 8 8 8 9 9 8 7 6 5 5 4 3 2 2 2 1 1 2 2 2 1 2 1 1 1 1 1 1 1 2 2 2 2
11 9 9 10 8 7 10 8 9 8 8 8 7 5 7 9 9 9 7 7 9 9 8 7 6 5 4 3 3 3 2 2 1 1 2 2 1 1 1 1 1 1 1 2 1 2 2 2 3
10 8 10 11 10 11 10 10 7 8 9 8 8 6 6 8 9 8 8 7 7 8 8 7 6 5 4 4 3 2 2 1 1 1 2 2 2 1 1 1 1 1 1 2 2 2 2 2 2
10 10 11 11 10 13 11 11 7 7 8 8 7 7 7 7 8 8 7 8 6 7 7 8 7 5 5 4 3 2 1 1 1 1 1 1 1 1 1 1 1 1 1 1 1 1 1 2 2
10 8 6 8 10 11 10 10 4 4 4 6 7 8 8 7 7 7 8 7 6 6 6 7 7 6 5 4 3 2 1 1 1 1 1 1 1 1 1 1 1 1 1 1 1 1 1 1 2
11 11 9 8 8 7 7 7 2 5 5 4 3 7 8 7 7 7 7 7 6 6 5 6 7 6 5 4 3 2 2 1 1 1 1 1 1 1 1 1 1 1 1 1 0 0 1 1 1
11 11 12 11 13 9 6 3 3 4 6 4 3 5 7 7 6 6 6 6 6 6 5 6 6 5 5 4 4 3 2 2 1 0 1 0 0 1 2 1 1 1 1 1 1 0 1 1 1
13 11 8 9 9 10 6 5 4 6 6 5 4 5 6 7 6 6 6 6 6 6 6 5 5 5 4 4 4 4 4 3 2 1 1 1 0 1 0 1 1 1 0 1 1 0 1 1 1
12 13 10 8 9 9 8 3 2 6 5 6 5 5 6 6 5 5 6 6 6 6 6 6 5 5 5 4 3 3 3 2 2 1 1 1 1 1 1 1 1 1 0 1 1 1 1 1 1
11 12 11 9 8 9 9 3 3 5 4 4 3 4 5 5 6 6 6 6 5 5 5 6 5 5 4 4 4 3 2 2 1 1 1 1 1 1 1 1 1 1 0 1 1 1 1 1 1
Wind_Direction
244 243 235 248 245 247 64 73 72 65 63 57 50 57 63 54 62 85 100 97 101 106 109 104 94 90 87 85 82 84 87 85 79 72 69 66 62 58 55 55 53 61 64 66 66 65 60 53 48
263 258 246 244 267 28 67 73 75 70 67 75 71 67 72 69 80 99 103 103 106 108 110 105 102 96 92 89 84 84 86 86 80 75 70 66 63 60 57 56 56 62 61 64 67 67 60 53 48
261 259 264 242 281 63 86 79 85 87 80 79 78 69 66 76 86 99 110 112 107 110 110 111 111 105 100 95 88 87 87 86 82 77 74 71 67 62 60 58 57 56 57 63 64 64 57 52 49
260 246 238 248 128 107 97 90 94 99 94 81 83 84 76 67 91 107 117 117 116 119 115 118 120 115 109 101 93 91 90 87 84 80 80 76 73 69 63 62 62 60 57 56 53 54 47 47 43
247 258 251 261 170 119 103 89 87 85 86 84 87 92 89 86 99 114 122 127 125 118 118 124 127 124 117 111 104 100 97 92 87 83 83 82 80 77 72 67 69 70 67 61 51 47 38 37 28
259 261 270 261 156 95 92 91 87 88 95 100 103 103 100 110 115 125 130 129 121 118 120 128 135 133 128 124 121 116 111 106 102 95 91 92 93 88 86 82 79 76 71 67 56 42 38 41 26
262 282 279 274 229 122 103 95 89 87 90 91 101 106 114 124 126 132 131 127 119 118 123 132 139 141 140 137 136 134 131 133 130 127 140 149 145 142 129 113 102 89 82 78 68 41 25 19 10
262 284 290 258 226 118 109 101 96 89 84 93 101 111 126 129 136 135 131 125 121 124 130 137 142 145 154 152 150 152 154 158 161 168 204 214 188 183 173 152 143 141 131 170 173 191 248 276 283
262 266 273 262 188 114 119 116 104 97 102 96 80 100 123 137 142 139 135 129 124 124 131 133 134 144 156 150 143 164 167 170 176 183 216 216 205 185 180 149 161 179 197 228 241 240 231 244 250
249 261 271 299 43 81 121 121 130 135 130 108 100 108 125 143 149 148 145 141 136 134 131 126 132 139 148 136 137 165 163 159 192 169 184 208 271 32 105 150 176 193 203 232 238 237 236 242 250
251 259 269 276 81 90 149 161 174 157 136 120 124 130 140 150 154 154 147 143 137 136 131 127 127 129 133 119 141 153 157 146 188 154 146 120 67 50 95 152 166 195 195 228 211 216 229 240 251
247 264 275 272 190 223 263 247 46 133 101 104 126 139 148 157 159 158 149 143 139 141 141 132 124 119 103 97 116 131 131 133 143 121 88 73 78 9 358 110 150 194 183 205 217 238 176 273 296
246 247 255 257 233 226 269 281 261 166 121 128 133 148 158 164 161 155 145 144 144 143 144 134 122 115 102 88 76 109 103 111 128 120 108 68 79 345 5 33 44 347 39 118 334 10 4 337 343
261 259 246 243 227 208 209 218 233 205 164 144 142 154 160 159 153 148 145 145 141 138 142 134 131 118 113 114 96 95 107 95 90 90 85 45 30 37 28 24 19 356 355 20 5 5 15 8 1
258 254 242 232 230 218 214 222 218 200 174 156 153 161 155 158 152 144 142 142 140 139 135 136 139 126 125 119 130 106 85 98 83 96 100 82 37 38 31 29 351 345 9 358 347 16 15 7 12
244 245 242 230 224 211 221 229 188 196 187 166 162 159 156 152 149 150 145 139 131 136 130 138 149 134 135 130 124 94 95 90 83 84 92 82 51 39 29 18 355 354 358 352 28 16 7 12 10
237 236 238 236 214 215 219 216 181 191 196 172 169 165 159 154 156 152 145 138 133 127 129 142 133 139 144 148 157 165 101 87 95 82 78 75 61 31 58 44 14 352 358 6 2 35 22 6 352
246 237 229 233 225 224 218 216 193 195 202 182 177 172 165 155 160 155 147 138 132 131 133 140 144 143 150 162 159 162 135 117 111 98 93 85 83 50 357 71 32 353 1 3 13 15 7 346 328
267 271 258 236 238 232 233 224 212 201 200 184 176 170 165 160 156 155 150 144 143 145 145 147 152 150 156 163 170 170 164 150 130 123 110 114 88 59 59 11 26 3 6 3 10 0 338 328 327
256 262 262 236 225 241 246 242 224 205 200 183 181 171 162 158 155 155 154 152 150 150 154 151 151 149 164 164 171 173 175 171 165 131 114 120 116 76 81 55 355 4 4 19 5 0 338 329 360
243 247 254 251 247 236 244 247 230 210 186 185 191 180 170 164 157 153 165 163 159 158 157 157 157 155 172 168 174 179 163 157 152 144 135 127 130 118 75 61 19 358 31 32 6 3 341 327 329
246 251 259 252 246 244 231 244 217 195 189 193 189 189 175 168 167 161 168 169 165 162 158 153 153 157 163 159 178 181 171 177 179 157 140 141 130 118 124 95 64 16 13 17 13 20 345 332 329
254 259 258 260 255 256 243 247 223 182 192 191 183 188 184 173 167 165 165 166 164 161 159 153 149 155 159 165 170 178 192 186 153 119 116 125 120 111 89 83 64 36 31 23 8 15 7 347 336
254 263 260 256 254 245 240 249 235 193 192 182 178 172 179 176 159 160 158 150 154 150 153 153 150 155 164 168 165 168 181 163 118 109 129 144 135 122 94 94 71 53 33 26 2 352 6 347 334
235 245 249 237 236 244 235 237 235 168 166 165 175 172 167 164 159 155 152 144 141 146 149 141 149 157 165 170 171 171 169 155 140 161 136 112 108 99 81 70 72 49 13 2 356 351 339 322 314
230 237 243 253 251 250 240 234 194 153 129 124 147 156 156 159 156 158 150 143 147 148 151 137 150 157 161 162 157 154 164 151 112 108 128 143 142 107 102 83 78 56 15 354 336 290 270 293 294
232 233 249 266 276 273 245 194 135 132 124 136 156 150 157 159 154 153 143 144 142 139 139 137 138 149 155 155 153 152 142 134 140 144 129 84 58 109 110 142 134 98 42 338 318 298 314 319 320
243 246 244 249 264 273 262 236 195 171 162 153 172 162 156 150 153 150 141 143 140 138 133 130 132 135 143 152 163 149 143 144 145 154 142 115 74 61 190 174 147 115 302 278 310 327 307 301 300
225 237 248 258 262 268 269 253 139 149 154 158 170 156 144 144 146 140 140 142 141 142 141 137 138 144 146 142 137 126 135 140 145 158 147 134 185 203 227 191 159 159 252 334 347 276 311 332 326
239 240 241 251 259 269 277 269 99 113 128 142 155 145 139 144 148 141 137 139 141 143 140 137 138 144 149 138 136 136 130 135 152 180 175 161 215 219 208 194 170 204 208 284 292 284 310 285 300